SCP
0 0 0 0 0 0 0 0 0 0 0 0 0 0 0 0 0 0 0 0 0 0 0 0 0 0 0 0 0 0 1 2 2 1 1 1 1 1 1 1 1 1 0 0 0 0 0 0 0
0 0 0 0 0 0 0 0 0 0 0 0 0 0 0 0 0 0 0 0 0 0 0 0 0 0 0 0 0 0 0 1 2 2 1 1 1 1 1 1 1 1 1 0 0 0 0 0 0
0 0 0 0 0 0 0 0 0 0 0 0 0 0 0 0 0 0 0 0 0 0 0 0 0 0 0 0 0 0 0 0 0 0 2 1 1 1 1 1 1 1 1 1 0 0 0 0 0
0 0 0 0 0 0 0 0 0 0 0 0 0 0 0 0 0 0 0 0 0 0 0 0 0 0 0 0 0 0 0 0 0 0 0 1 1 1 0 1 1 1 1 1 1 0 0 0 0
0 0 0 0 0 0 0 0 0 0 0 0 0 0 0 0 0 0 0 0 0 0 0 0 0 0 0 0 0 0 0 0 0 0 0 0 1 1 0 1 1 1 1 1 1 1 0 0 0
0 0 0 0 0 0 0 0 0 0 0 0 0 0 0 0 0 0 0 0 0 0 0 0 0 0 0 0 0 0 0 0 0 0 0 0 0 0 1 0 1 1 1 1 1 1 1 0 0
0 0 0 0 0 0 0 0 0 0 0 0 0 0 0 0 0 0 0 0 0 0 0 0 0 0 0 0 0 0 0 0 0 0 0 0 0 0 0 0 0 1 1 1 1 1 1 0 0
0 0 0 0 0 0 0 0 0 0 0 0 0 0 0 0 0 0 0 0 0 0 0 0 0 0 0 -0 0 0 0 0 0 0 0 0 0 0 0 0 0 0 1 1 1 1 1 0 0
0 0 0 0 0 0 0 0 0 0 0 0 0 0 0 0 0 0 0 0 0 0 0 0 0 0 -0 -0 -0 -0 0 0 0 0 0 0 0 0 0 0 0 0 0 1 1 1 1 0 0
0 0 0 0 0 0 0 0 0 0 0 0 0 0 0 0 0 0 -0 0 0 0 -0 -0 -0 -0 -0 -0 -0 -0 -0 -0 -0 0 0 0 0 0 0 0 0 0 0 0 0 1 0 0 0
0 0 0 0 0 0 0 0 0 0 0 0 0 -0 -0 -0 0 0 0 -0 -0 -0 -0 -0 -0 -0 -0 -0 -0 -0 -0 -0 -0 -0 -0 -0 -0 0 0 0 0 0 0 0 0 1 1 0 1
0 0 0 0 0 0 0 0 0 0 0 0 0 0 0 0 0 0 0 0 0 -0 -0 -0 -0 -0 -0 -0 -0 -0 -0 -0 -0 -0 -0 -0 -0 -0 0 0 0 0 0 0 1 1 1 0 1
0 0 0 0 0 0 0 0 0 0 0 0 0 0 0 0 0 0 0 0 0 0 0 -0 -0 -0 -0 -0 -0 -0 -0 -0 -0 -0 -0 -0 -0 -0 0 0 0 0 0 0 0 1 1 0 1
0 0 0 0 0 0 0 0 0 0 0 0 0 0 0 0 0 0 0 0 0 0 0 0 0 0 -0 -0 -0 -0 -0 -0 -0 -0 -0 0 -0 0 0 0 0 0 0 0 0 1 1 1 0
0 0 0 0 0 0 0 0 0 0 0 0 0 0 0 0 0 0 0 0 0 0 -0 -0 0 0 0 0 0 0 0 0 0 0 -0 0 0 0 0 0 0 0 0 0 0 0 1 1 1
0 0 0 0 0 0 0 0 0 0 0 0 0 0 0 0 0 0 0 0 0 0 0 0 0 0 0 0 0 0 0 0 0 0 0 0 0 0 0 0 0 0 0 0 0 0 1 0 0
0 0 0 0 0 0 0 0 0 0 0 0 0 0 0 0 0 0 0 0 0 0 0 0 0 0 0 0 0 0 0 -0 -0 -0 -0 0 0 0 0 0 0 0 0 0 0 0 0 0 0
0 0 0 0 0 0 0 0 0 0 0 0 0 0 0 0 0 0 0 0 0 0 0 0 0 0 0 0 0 0 -0 -0 -0 -0 -0 -0 0 0 0 0 0 0 0 0 0 0 0 0 1
0 0 0 0 0 0 0 0 0 0 0 0 0 0 0 0 0 0 0 0 0 0 0 0 0 0 0 0 -0 -0 -0 -0 -0 -0 -0 0 0 0 0 0 0 0 0 0 0 0 -0 0 1
0 0 0 0 0 0 0 0 0 0 0 -0 0 0 0 0 0 0 0 0 0 0 0 0 0 0 -0 -0 -0 -0 -0 -0 -0 -0 -0 -0 0 0 0 0 0 0 0 0 0 0 0 0 0
0 0 0 0 0 0 0 0 -0 -0 0 -0 -0 -0 0 0 0 0 0 -0 -0 -0 -0 -0 -0 -0 -0 -0 -0 -0 -0 -0 -0 -0 -0 -0 0 0 0 0 0 0 0 0 0 0 0 0 -0
0 0 0 0 0 0 0 0 0 -0 -0 0 0 -0 0 0 0 -0 -0 -0 -0 -0 -0 -0 0 0 0 0 0 0 -0 -0 -0 -0 -0 -0 -0 0 0 0 0 0 0 0 0 0 0 0 0
0 0 0 0 0 0 0 0 0 0 0 0 0 0 0 -0 -0 -0 -0 -0 -0 -0 -0 0 0 0 0 0 0 0 0 0 -0 -0 -0 -0 -0 0 0 0 0 0 0 0 0 0 0 0 0
0 0 0 0 0 0 0 0 0 -0 -0 -0 -0 -0 -0 -0 -0 -0 -0 -0 -0 -0 -0 0 0 0 0 0 0 0 0 0 0 0 -0 -0 -0 -0 0 0 0 0 0 0 0 0 0 0 0
0 0 0 0 0 0 0 0 0 0 0 -0 -0 -0 -0 -0 -0 -0 -0 -0 -0 -0 0 0 0 0 0 0 0 0 0 0 0 0 0 -0 -0 -0 0 0 0 0 0 0 0 0 0 0 0
0 0 0 0 0 0 0 0 0 0 0 0 -0 -0 -0 -0 -0 -0 -0 -0 0 0 0 0 0 0 0 0 0 0 0 0 0 0 0 0 0 0 0 0 0 0 0 0 0 0 0 0 0
0 0 0 0 0 0 0 -0 -0 0 -0 -0 -0 -0 -0 -0 -0 -0 0 0 0 0 0 0 0 0 0 0 0 0 0 0 0 0 0 0 0 0 0 0 0 0 0 0 0 0 0 0 0
0 0 0 0 0 0 0 -0 0 -0 -0 0 0 -0 -0 -0 -0 -0 -0 0 0 0 0 0 0 0 0 0 0 0 0 0 0 0 0 0 0 0 0 0 0 0 0 0 0 0 0 0 0
0 0 0 0 0 0 0 -0 0 0 -0 -0 -0 -0 -0 -0 -0 -0 -0 0 0 -0 0 0 0 0 0 0 0 0 0 0 0 0 0 0 0 0 0 0 0 0 0 0 0 0 0 0 0
0 0 0 0 0 0 0 -0 0 -0 -0 -0 -0 -0 -0 -0 -0 0 0 0 -0 0 0 0 0 0 0 0 0 0 0 0 0 0 0 0 0 0 0 0 0 0 0 0 0 0 0 0 0
Wind_Speed_500mb
7 6 9 8 4 8 10 12 6 14 12 1 33 17 18 27 10 9 28 15 21 24 18 9 8 9 10 17 23 29 36 38 29 26 30 37 41 45 49 50 50 48 44 41 42 45 43 39 36
4 5 7 5 6 4 11 14 21 18 19 48 54 26 7 8 6 23 17 16 26 31 25 12 10 11 12 11 17 25 32 37 37 35 31 32 41 45 49 52 53 52 49 47 46 47 45 41 39
5 6 6 7 8 15 11 9 5 16 44 25 24 37 20 2 14 23 20 16 24 27 25 18 9 7 12 16 12 17 26 29 38 42 40 37 38 43 48 53 54 54 53 51 51 49 46 44 41
10 7 5 4 20 15 7 12 18 34 60 66 19 16 3 3 12 22 22 25 22 20 21 23 19 11 6 7 12 13 13 24 25 37 39 39 40 42 46 53 57 57 56 55 54 50 47 45 42
11 6 2 7 16 8 10 26 43 31 26 35 44 9 5 16 18 10 14 13 14 14 16 19 23 23 16 10 5 2 7 8 16 22 33 43 43 45 48 52 56 60 60 60 57 53 48 47 44
7 6 3 12 12 8 11 26 31 14 33 32 9 5 12 22 4 13 16 17 17 18 19 21 23 23 21 19 15 15 12 5 4 21 32 42 48 49 50 56 59 62 64 65 61 57 52 51 47
11 7 9 8 19 13 17 25 21 17 13 3 14 8 26 25 24 15 17 23 27 27 26 24 29 33 33 31 28 26 25 23 19 16 21 36 46 54 56 60 64 65 68 70 66 62 57 55 52
4 6 7 8 12 15 6 15 21 16 13 25 3 10 5 16 36 36 37 40 43 41 39 42 43 43 44 45 42 39 37 36 33 33 31 29 38 52 58 65 69 70 70 73 71 67 63 59 57
7 4 5 11 8 14 6 13 24 46 47 38 19 34 41 57 56 58 62 62 59 57 57 57 58 56 53 52 51 51 46 47 45 44 42 41 41 39 55 65 69 75 76 76 76 75 70 64 61
9 7 14 11 9 32 23 30 37 25 47 38 42 49 57 66 83 85 74 66 64 60 52 47 52 51 47 47 46 48 48 46 49 49 49 48 48 47 46 62 75 76 81 81 80 80 77 71 67
8 11 14 20 45 54 48 43 51 18 43 47 56 71 74 69 68 64 67 63 59 49 36 36 39 39 40 42 47 48 48 49 45 50 51 53 52 53 50 51 60 71 81 87 85 83 85 81 75
10 20 31 43 41 36 35 50 29 47 61 60 69 74 81 81 75 62 59 60 55 54 56 51 42 38 45 49 48 52 50 48 50 46 49 54 55 54 53 50 49 51 68 85 96 92 91 88 83
20 17 19 36 55 60 71 43 53 57 66 82 83 84 78 80 74 58 47 49 51 52 49 42 40 41 43 50 48 49 49 50 54 54 48 51 56 55 56 53 56 57 60 70 91 97 98 91 90
9 21 29 27 47 53 51 40 37 60 68 75 69 63 69 73 75 57 54 54 50 49 44 45 49 52 52 57 61 62 61 61 60 61 54 52 55 56 55 56 57 66 64 53 78 103 103 98 96
20 29 21 20 18 16 37 49 16 61 70 64 69 73 69 62 55 58 51 54 53 50 49 50 52 54 60 61 60 65 66 67 68 67 61 53 53 55 53 57 61 67 76 60 40 86 108 104 98
12 5 12 7 27 9 30 51 35 65 67 63 64 71 75 72 66 66 61 52 52 57 55 48 50 53 57 60 60 62 65 66 70 70 68 65 62 63 62 60 61 62 68 80 54 66 113 113 106
4 20 38 33 28 21 12 49 45 68 56 50 53 61 62 68 72 64 51 44 49 50 33 29 26 28 38 48 54 58 62 68 73 76 76 74 67 61 62 66 65 61 62 64 69 45 102 109 110
32 37 35 44 32 34 31 43 37 72 64 51 57 55 52 60 53 29 3 12 9 4 14 21 27 33 37 41 48 57 65 74 75 72 66 67 69 67 65 66 69 69 67 63 58 75 67 107 118
25 34 34 39 39 23 36 40 49 54 56 49 50 43 44 3 29 29 24 16 11 12 21 30 40 47 51 54 56 62 69 73 76 75 74 70 68 66 65 64 69 72 75 69 62 68 88 87 120
23 32 29 33 26 27 36 51 49 36 32 51 44 5 25 26 28 23 19 20 26 46 51 50 52 55 59 61 64 68 76 83 87 87 85 77 72 70 65 60 66 72 74 70 69 60 66 86 83
25 26 22 31 41 28 17 24 27 26 24 47 45 44 39 42 47 48 44 44 51 57 61 64 65 67 68 67 69 72 75 83 90 93 94 91 82 76 76 74 63 62 65 68 61 66 59 64 56
30 18 22 32 27 20 8 10 14 20 16 23 30 40 44 42 43 45 56 63 63 64 65 65 67 68 70 67 67 69 71 78 85 82 85 84 79 83 84 84 78 73 67 67 62 59 69 56 55
15 26 21 35 24 7 13 5 15 25 14 13 13 27 36 44 45 56 52 53 57 60 62 63 62 63 64 65 65 70 77 80 78 81 84 85 85 85 85 85 83 81 80 78 71 60 57 72 75
19 18 31 10 6 6 10 9 10 3 6 4 5 31 34 47 51 48 49 57 65 66 65 64 63 64 62 62 65 69 75 77 76 84 83 84 78 85 85 87 85 77 76 78 73 70 64 64 69
17 14 9 9 8 10 14 12 15 4 8 4 8 39 45 46 50 50 62 66 69 69 70 69 68 70 66 66 66 69 75 80 87 90 92 84 81 86 90 80 84 88 78 70 68 70 66 64 70
27 10 3 10 5 16 16 8 10 9 6 13 34 42 48 53 57 58 67 71 70 70 69 72 75 77 73 71 74 74 77 81 85 87 91 93 91 91 88 88 84 84 82 78 68 66 70 61 71
7 6 10 9 3 7 6 13 23 10 12 20 38 47 48 54 61 68 72 72 71 72 71 71 74 77 76 76 77 80 82 85 87 86 86 92 93 95 94 91 87 86 86 79 75 66 68 68 75
5 11 9 6 8 9 9 10 10 21 18 34 32 40 49 61 69 75 76 75 73 71 70 74 76 78 77 79 80 83 84 85 87 86 91 92 95 92 91 92 92 93 84 83 76 74 66 70 77
12 8 6 4 3 5 7 11 14 12 11 25 28 48 52 63 70 71 73 73 73 74 78 83 87 84 83 79 77 79 81 82 83 88 91 92 90 86 87 93 91 91 90 87 78 76 74 70 86
7 11 5 4 13 4 4 14 5 9 16 17 34 48 51 62 67 72 76 81 80 82 88 88 94 91 84 80 76 75 78 79 82 87 88 83 85 84 85 86 87 89 91 90 82 77 76 76 95
Wind_Direction_500mb
320 246 196 155 56 65 281 252 275 289 316 245 326 298 257 258 197 221 144 167 186 199 197 176 145 150 166 202 201 199 206 202 214 224 215 208 209 213 213 214 216 219 220 217 207 202 198 194 193
286 193 160 91 102 231 250 207 216 225 245 317 323 322 311 263 35 127 124 163 209 204 204 195 151 126 118 152 202 204 204 208 207 211 221 225 214 216 218 217 217 218 218 215 211 206 203 199 199
205 179 110 135 187 215 230 216 252 313 310 303 311 298 301 57 130 150 147 167 206 207 205 208 202 157 119 117 155 206 213 212 214 210 212 221 225 222 221 221 219 219 217 214 211 211 206 202 204
145 120 130 128 239 258 247 321 344 322 304 300 309 300 143 273 191 174 173 187 203 204 209 219 214 214 189 124 118 128 199 220 226 226 218 219 223 227 230 225 222 219 217 215 212 212 208 204 206
134 99 27 251 256 266 280 284 298 286 290 293 307 278 94 96 111 149 209 240 247 250 246 248 230 217 217 221 248 180 128 181 217 226 227 229 228 228 231 232 226 221 218 216 214 213 210 206 206
121 131 174 236 247 303 267 271 287 271 295 304 330 319 171 136 153 351 326 300 299 292 284 286 283 275 254 244 262 271 268 250 222 230 233 231 233 235 230 231 230 226 220 217 217 214 212 208 207
130 113 232 278 269 272 274 306 293 308 304 245 316 243 177 159 350 1 334 323 315 310 302 300 302 300 294 283 284 284 281 271 275 273 250 249 241 236 237 232 230 229 225 221 218 218 214 210 207
162 106 296 262 270 290 273 312 314 318 282 301 314 269 223 221 317 310 307 301 306 309 310 306 303 302 303 301 289 283 283 283 279 282 276 263 254 247 239 237 233 228 229 225 222 219 219 213 208
177 68 246 258 269 261 282 332 296 295 283 278 255 275 279 293 297 300 301 299 296 298 300 299 299 298 298 298 299 295 286 284 282 283 282 274 268 258 249 240 237 231 228 229 225 223 221 219 213
153 160 225 221 264 289 281 283 283 285 290 282 288 274 280 287 292 298 300 300 299 299 300 298 296 297 296 295 296 297 297 288 287 283 281 276 269 265 264 243 237 235 229 227 228 225 223 221 215
195 218 250 280 292 298 300 292 298 281 281 282 290 293 290 291 292 290 291 293 298 299 293 296 297 290 292 298 293 293 293 296 286 282 279 276 269 264 261 263 247 244 233 224 225 227 225 220 218
290 247 276 293 297 309 291 300 281 277 284 293 288 284 285 285 285 282 286 287 288 290 293 289 282 287 292 296 294 293 291 290 291 280 275 273 268 261 258 258 252 239 243 227 221 222 226 221 220
249 262 279 295 298 295 295 290 288 290 295 297 296 291 282 279 278 273 283 287 292 290 289 283 281 290 292 294 293 290 293 290 291 286 275 272 269 264 257 250 246 236 237 248 219 222 223 221 221
277 285 284 285 282 283 280 288 300 297 314 302 298 305 304 285 280 266 279 280 289 294 291 290 288 287 287 287 285 287 288 284 285 289 282 274 270 267 259 251 247 243 237 234 240 224 222 221 219
289 299 293 260 272 271 315 287 279 301 303 297 295 296 299 300 282 279 280 286 288 287 284 285 282 281 285 281 279 277 277 279 283 284 283 271 270 266 263 257 246 243 240 241 234 233 226 224 219
301 302 317 0 297 258 308 293 309 298 291 288 288 292 287 286 284 278 284 284 280 283 283 272 268 267 267 268 265 266 269 273 278 279 277 277 273 268 265 258 252 245 247 250 245 235 225 224 219
254 295 311 314 321 311 283 292 296 296 291 283 283 281 282 286 292 293 290 284 275 271 257 245 254 259 251 250 256 260 264 268 272 272 272 274 272 268 266 259 252 250 249 252 260 239 220 219 220
303 309 303 309 319 313 308 294 298 296 296 292 282 278 279 288 292 302 36 103 115 217 269 294 299 300 296 284 272 268 266 267 270 269 268 268 268 265 265 262 254 249 250 248 254 235 233 222 220
294 297 301 300 308 309 299 302 295 293 296 286 279 275 284 64 90 95 91 74 44 356 326 312 303 299 296 293 288 279 275 270 268 267 268 265 264 263 263 261 255 249 250 250 249 254 243 219 216
302 292 293 301 305 309 305 294 291 297 287 286 282 154 89 69 44 31 9 342 323 322 319 311 304 297 292 288 283 279 277 273 271 269 267 264 261 259 257 259 257 251 250 251 250 253 258 235 212
302 293 296 308 312 299 305 296 308 318 358 40 62 82 53 28 8 349 338 330 323 319 315 308 302 295 290 285 282 279 276 272 270 267 267 265 260 254 252 251 252 253 248 249 252 241 247 255 250
301 296 308 311 322 304 97 282 307 335 351 29 35 42 23 6 354 343 338 332 322 313 308 303 297 291 286 283 279 275 273 272 269 271 269 266 262 256 251 250 249 248 248 245 246 244 237 243 236
289 314 302 309 290 30 339 61 281 328 59 24 349 0 0 358 347 339 333 329 327 324 318 312 304 296 290 284 277 273 269 268 269 269 268 266 263 256 249 248 248 247 246 247 245 243 238 243 239
329 322 323 22 89 23 246 104 286 337 282 177 339 345 345 341 335 334 335 331 326 323 320 316 309 302 296 288 280 272 267 266 264 263 262 261 261 261 254 247 243 244 243 243 243 241 237 240 242
359 355 304 344 357 226 290 326 247 209 243 189 286 329 334 334 334 333 333 332 327 323 320 318 312 306 300 292 284 277 272 267 263 260 260 258 258 255 253 248 243 240 240 241 240 240 238 237 239
314 184 227 289 263 289 306 245 267 211 200 343 326 333 329 338 337 331 335 332 328 326 321 319 314 308 303 296 290 282 275 270 265 262 259 258 256 254 253 249 245 239 239 238 239 239 234 233 237
343 19 234 259 67 42 270 289 304 181 326 347 334 334 330 331 336 336 336 334 333 329 326 321 316 309 304 298 291 284 278 273 268 263 259 256 255 254 252 248 244 241 235 235 235 239 234 228 227
2 278 336 350 314 303 292 284 235 316 313 330 332 332 325 334 337 338 337 336 335 333 331 327 322 316 307 300 292 286 281 275 271 266 258 254 252 249 248 247 243 240 236 231 233 233 229 228 226
333 328 296 177 120 319 321 267 226 253 261 310 312 326 326 332 335 337 337 339 338 337 335 332 328 321 311 303 296 289 282 276 270 265 259 253 250 245 244 243 241 238 234 228 230 229 228 227 222
199 218 219 29 308 260 182 275 213 222 288 288 308 321 327 333 338 340 343 345 341 340 337 333 331 326 318 309 301 290 282 275 268 263 259 255 248 241 240 240 239 237 233 227 225 229 225 221 217
Wind_Speed_850mb
7 6 9 8 4 8 10 12 6 14 12 1 33 17 18 27 10 9 28 15 21 24 18 9 8 9 10 17 23 29 36 38 29 26 30 37 41 45 49 50 50 48 44 41 42 45 43 39 36
4 5 7 5 6 4 11 14 21 18 19 48 54 26 7 8 6 23 17 16 26 31 25 12 10 11 12 11 17 25 32 37 37 35 31 32 41 45 49 52 53 52 49 47 46 47 45 41 39
5 6 6 7 8 15 11 9 5 16 44 25 24 37 20 2 14 23 20 16 24 27 25 18 9 7 12 16 12 17 26 29 38 42 40 37 38 43 48 53 54 54 53 51 51 49 46 44 41
10 7 5 4 20 15 7 12 18 34 60 66 19 16 3 3 12 22 22 25 22 20 21 23 19 11 6 7 12 13 13 24 25 37 39 39 40 42 46 53 57 57 56 55 54 50 47 45 42
11 6 2 7 16 8 10 26 43 31 26 35 44 9 5 16 18 10 14 13 14 14 16 19 23 23 16 10 5 2 7 8 16 22 33 43 43 45 48 52 56 60 60 60 57 53 48 47 44
7 6 3 12 12 8 11 26 31 14 33 32 9 5 12 22 4 13 16 17 17 18 19 21 23 23 21 19 15 15 12 5 4 21 32 42 48 49 50 56 59 62 64 65 61 57 52 51 47
11 7 9 8 19 13 17 25 21 17 13 3 14 8 26 25 24 15 17 23 27 27 26 24 29 33 33 31 28 26 25 23 19 16 21 36 46 54 56 60 64 65 68 70 66 62 57 55 52
4 6 7 8 12 15 6 15 21 16 13 25 3 10 5 16 36 36 37 40 43 41 39 42 43 43 44 45 42 39 37 36 33 33 31 29 38 52 58 65 69 70 70 73 71 67 63 59 57
7 4 5 11 8 14 6 13 24 46 47 38 19 34 41 57 56 58 62 62 59 57 57 57 58 56 53 52 51 51 46 47 45 44 42 41 41 39 55 65 69 75 76 76 76 75 70 64 61
9 7 14 11 9 32 23 30 37 25 47 38 42 49 57 66 83 85 74 66 64 60 52 47 52 51 47 47 46 48 48 46 49 49 49 48 48 47 46 62 75 76 81 81 80 80 77 71 67
8 11 14 20 45 54 48 43 51 18 43 47 56 71 74 69 68 64 67 63 59 49 36 36 39 39 40 42 47 48 48 49 45 50 51 53 52 53 50 51 60 71 81 87 85 83 85 81 75
10 20 31 43 41 36 35 50 29 47 61 60 69 74 81 81 75 62 59 60 55 54 56 51 42 38 45 49 48 52 50 48 50 46 49 54 55 54 53 50 49 51 68 85 96 92 91 88 83
20 17 19 36 55 60 71 43 53 57 66 82 83 84 78 80 74 58 47 49 51 52 49 42 40 41 43 50 48 49 49 50 54 54 48 51 56 55 56 53 56 57 60 70 91 97 98 91 90
9 21 29 27 47 53 51 40 37 60 68 75 69 63 69 73 75 57 54 54 50 49 44 45 49 52 52 57 61 62 61 61 60 61 54 52 55 56 55 56 57 66 64 53 78 103 103 98 96
20 29 21 20 18 16 37 49 16 61 70 64 69 73 69 62 55 58 51 54 53 50 49 50 52 54 60 61 60 65 66 67 68 67 61 53 53 55 53 57 61 67 76 60 40 86 108 104 98
12 5 12 7 27 9 30 51 35 65 67 63 64 71 75 72 66 66 61 52 52 57 55 48 50 53 57 60 60 62 65 66 70 70 68 65 62 63 62 60 61 62 68 80 54 66 113 113 106
4 20 38 33 28 21 12 49 45 68 56 50 53 61 62 68 72 64 51 44 49 50 33 29 26 28 38 48 54 58 62 68 73 76 76 74 67 61 62 66 65 61 62 64 69 45 102 109 110
32 37 35 44 32 34 31 43 37 72 64 51 57 55 52 60 53 29 3 12 9 4 14 21 27 33 37 41 48 57 65 74 75 72 66 67 69 67 65 66 69 69 67 63 58 75 67 107 118
25 34 34 39 39 23 36 40 49 54 56 49 50 43 44 3 29 29 24 16 11 12 21 30 40 47 51 54 56 62 69 73 76 75 74 70 68 66 65 64 69 72 75 69 62 68 88 87 120
23 32 29 33 26 27 36 51 49 36 32 51 44 5 25 26 28 23 19 20 26 46 51 50 52 55 59 61 64 68 76 83 87 87 85 77 72 70 65 60 66 72 74 70 69 60 66 86 83
25 26 22 31 41 28 17 24 27 26 24 47 45 44 39 42 47 48 44 44 51 57 61 64 65 67 68 67 69 72 75 83 90 93 94 91 82 76 76 74 63 62 65 68 61 66 59 64 56
30 18 22 32 27 20 8 10 14 20 16 23 30 40 44 42 43 45 56 63 63 64 65 65 67 68 70 67 67 69 71 78 85 82 85 84 79 83 84 84 78 73 67 67 62 59 69 56 55
15 26 21 35 24 7 13 5 15 25 14 13 13 27 36 44 45 56 52 53 57 60 62 63 62 63 64 65 65 70 77 80 78 81 84 85 85 85 85 85 83 81 80 78 71 60 57 72 75
19 18 31 10 6 6 10 9 10 3 6 4 5 31 34 47 51 48 49 57 65 66 65 64 63 64 62 62 65 69 75 77 76 84 83 84 78 85 85 87 85 77 76 78 73 70 64 64 69
17 14 9 9 8 10 14 12 15 4 8 4 8 39 45 46 50 50 62 66 69 69 70 69 68 70 66 66 66 69 75 80 87 90 92 84 81 86 90 80 84 88 78 70 68 70 66 64 70
27 10 3 10 5 16 16 8 10 9 6 13 34 42 48 53 57 58 67 71 70 70 69 72 75 77 73 71 74 74 77 81 85 87 91 93 91 91 88 88 84 84 82 78 68 66 70 61 71
7 6 10 9 3 7 6 13 23 10 12 20 38 47 48 54 61 68 72 72 71 72 71 71 74 77 76 76 77 80 82 85 87 86 86 92 93 95 94 91 87 86 86 79 75 66 68 68 75
5 11 9 6 8 9 9 10 10 21 18 34 32 40 49 61 69 75 76 75 73 71 70 74 76 78 77 79 80 83 84 85 87 86 91 92 95 92 91 92 92 93 84 83 76 74 66 70 77
12 8 6 4 3 5 7 11 14 12 11 25 28 48 52 63 70 71 73 73 73 74 78 83 87 84 83 79 77 79 81 82 83 88 91 92 90 86 87 93 91 91 90 87 78 76 74 70 86
7 11 5 4 13 4 4 14 5 9 16 17 34 48 51 62 67 72 76 81 80 82 88 88 94 91 84 80 76 75 78 79 82 87 88 83 85 84 85 86 87 89 91 90 82 77 76 76 95
Wind_Direction_850mb
320 246 196 155 56 65 281 252 275 289 316 245 326 298 257 258 197 221 144 167 186 199 197 176 145 150 166 202 201 199 206 202 214 224 215 208 209 213 213 214 216 219 220 217 207 202 198 194 193
286 193 160 91 102 231 250 207 216 225 245 317 323 322 311 263 35 127 124 163 209 204 204 195 151 126 118 152 202 204 204 208 207 211 221 225 214 216 218 217 217 218 218 215 211 206 203 199 199
205 179 110 135 187 215 230 216 252 313 310 303 311 298 301 57 130 150 147 167 206 207 205 208 202 157 119 117 155 206 213 212 214 210 212 221 225 222 221 221 219 219 217 214 211 211 206 202 204
145 120 130 128 239 258 247 321 344 322 304 300 309 300 143 273 191 174 173 187 203 204 209 219 214 214 189 124 118 128 199 220 226 226 218 219 223 227 230 225 222 219 217 215 212 212 208 204 206
134 99 27 251 256 266 280 284 298 286 290 293 307 278 94 96 111 149 209 240 247 250 246 248 230 217 217 221 248 180 128 181 217 226 227 229 228 228 231 232 226 221 218 216 214 213 210 206 206
121 131 174 236 247 303 267 271 287 271 295 304 330 319 171 136 153 351 326 300 299 292 284 286 283 275 254 244 262 271 268 250 222 230 233 231 233 235 230 231 230 226 220 217 217 214 212 208 207
130 113 232 278 269 272 274 306 293 308 304 245 316 243 177 159 350 1 334 323 315 310 302 300 302 300 294 283 284 284 281 271 275 273 250 249 241 236 237 232 230 229 225 221 218 218 214 210 207
162 106 296 262 270 290 273 312 314 318 282 301 314 269 223 221 317 310 307 301 306 309 310 306 303 302 303 301 289 283 283 283 279 282 276 263 254 247 239 237 233 228 229 225 222 219 219 213 208
177 68 246 258 269 261 282 332 296 295 283 278 255 275 279 293 297 300 301 299 296 298 300 299 299 298 298 298 299 295 286 284 282 283 282 274 268 258 249 240 237 231 228 229 225 223 221 219 213
153 160 225 221 264 289 281 283 283 285 290 282 288 274 280 287 292 298 300 300 299 299 300 298 296 297 296 295 296 297 297 288 287 283 281 276 269 265 264 243 237 235 229 227 228 225 223 221 215
195 218 250 280 292 298 300 292 298 281 281 282 290 293 290 291 292 290 291 293 298 299 293 296 297 290 292 298 293 293 293 296 286 282 279 276 269 264 261 263 247 244 233 224 225 227 225 220 218
290 247 276 293 297 309 291 300 281 277 284 293 288 284 285 285 285 282 286 287 288 290 293 289 282 287 292 296 294 293 291 290 291 280 275 273 268 261 258 258 252 239 243 227 221 222 226 221 220
249 262 279 295 298 295 295 290 288 290 295 297 296 291 282 279 278 273 283 287 292 290 289 283 281 290 292 294 293 290 293 290 291 286 275 272 269 264 257 250 246 236 237 248 219 222 223 221 221
277 285 284 285 282 283 280 288 300 297 314 302 298 305 304 285 280 266 279 280 289 294 291 290 288 287 287 287 285 287 288 284 285 289 282 274 270 267 259 251 247 243 237 234 240 224 222 221 219
289 299 293 260 272 271 315 287 279 301 303 297 295 296 299 300 282 279 280 286 288 287 284 285 282 281 285 281 279 277 277 279 283 284 283 271 270 266 263 257 246 243 240 241 234 233 226 224 219
301 302 317 0 297 258 308 293 309 298 291 288 288 292 287 286 284 278 284 284 280 283 283 272 268 267 267 268 265 266 269 273 278 279 277 277 273 268 265 258 252 245 247 250 245 235 225 224 219
254 295 311 314 321 311 283 292 296 296 291 283 283 281 282 286 292 293 290 284 275 271 257 245 254 259 251 250 256 260 264 268 272 272 272 274 272 268 266 259 252 250 249 252 260 239 220 219 220
303 309 303 309 319 313 308 294 298 296 296 292 282 278 279 288 292 302 36 103 115 217 269 294 299 300 296 284 272 268 266 267 270 269 268 268 268 265 265 262 254 249 250 248 254 235 233 222 220
294 297 301 300 308 309 299 302 295 293 296 286 279 275 284 64 90 95 91 74 44 356 326 312 303 299 296 293 288 279 275 270 268 267 268 265 264 263 263 261 255 249 250 250 249 254 243 219 216
302 292 293 301 305 309 305 294 291 297 287 286 282 154 89 69 44 31 9 342 323 322 319 311 304 297 292 288 283 279 277 273 271 269 267 264 261 259 257 259 257 251 250 251 250 253 258 235 212
302 293 296 308 312 299 305 296 308 318 358 40 62 82 53 28 8 349 338 330 323 319 315 308 302 295 290 285 282 279 276 272 270 267 267 265 260 254 252 251 252 253 248 249 252 241 247 255 250
301 296 308 311 322 304 97 282 307 335 351 29 35 42 23 6 354 343 338 332 322 313 308 303 297 291 286 283 279 275 273 272 269 271 269 266 262 256 251 250 249 248 248 245 246 244 237 243 236
289 314 302 309 290 30 339 61 281 328 59 24 349 0 0 358 347 339 333 329 327 324 318 312 304 296 290 284 277 273 269 268 269 269 268 266 263 256 249 248 248 247 246 247 245 243 238 243 239
329 322 323 22 89 23 246 104 286 337 282 177 339 345 345 341 335 334 335 331 326 323 320 316 309 302 296 288 280 272 267 266 264 263 262 261 261 261 254 247 243 244 243 243 243 241 237 240 242
359 355 304 344 357 226 290 326 247 209 243 189 286 329 334 334 334 333 333 332 327 323 320 318 312 306 300 292 284 277 272 267 263 260 260 258 258 255 253 248 243 240 240 241 240 240 238 237 239
314 184 227 289 263 289 306 245 267 211 200 343 326 333 329 338 337 331 335 332 328 326 321 319 314 308 303 296 290 282 275 270 265 262 259 258 256 254 253 249 245 239 239 238 239 239 234 233 237
343 19 234 259 67 42 270 289 304 181 326 347 334 334 330 331 336 336 336 334 333 329 326 321 316 309 304 298 291 284 278 273 268 263 259 256 255 254 252 248 244 241 235 235 235 239 234 228 227
2 278 336 350 314 303 292 284 235 316 313 330 332 332 325 334 337 338 337 336 335 333 331 327 322 316 307 300 292 286 281 275 271 266 258 254 252 249 248 247 243 240 236 231 233 233 229 228 226
333 328 296 177 120 319 321 267 226 253 261 310 312 326 326 332 335 337 337 339 338 337 335 332 328 321 311 303 296 289 282 276 270 265 259 253 250 245 244 243 241 238 234 228 230 229 228 227 222
199 218 219 29 308 260 182 275 213 222 288 288 308 321 327 333 338 340 343 345 341 340 337 333 331 326 318 309 301 290 282 275 268 263 259 255 248 241 240 240 239 237 233 227 225 229 225 221 217